Starlink 3355

operational
NORAD ID: 50808 Int'l Des: 2022-001 Owner: SPXS Country: US Constellation: starlink
LEOCIRCULAR

Über Starlink 3355

Beschreibung wird geladen...

Live-Position

3D-Globus wird geladen...

Nächste Überflüge

Höhenverlauf

Altitude vs Time

uPlot chart will show altitude changes over time

Zweizeiliger Elementsatz

1 50808U 22001F 25302.65134795 -.00000344 00000-0 -35217-5 0 9994
2 50808 53.2179 27.3710 0001460 105.0627 255.0527 15.08839893210768
Epoch: 29. Okt. 2025 • Age: 16 hours

Aktueller Status

Höhe 545.7 km
Geschwindigkeit 7.59 km/s
Subsatellitenpunkt -19.13°S, 140.76°W
Startdatum 6. Jan. 2022
Alter 3.8 years
Typ internet

Technische Details

Klassifizierung Payload
Masse 297.00 kg
Trockenmasse 275.00 kg
Gesamtmasse 297.00 kg
Länge 0.20 m
Durchmesser 2.80 m
Spannweite 9.00 m
Form Box + pan
Hersteller SPXS
Bus-Typ Starlink
Phasenstatus In Orbit
Besitzer/Staat SPXS/US

Große Konstellationen

Loading constellations...